Oelwein, IA

6:01 PM CDT on April 22, 2018 (GMT -0500)
Oelwein Municipal

Weather History for KOLZ - October, 2012

Change the Weather History Date:

Monday, October 8, 2012

  Actual Average Record
Temperature  
Mean Temperature 47 °F -  
Max Temperature 64 °F 63 °F 84 °F (2003)
Min Temperature 30 °F 43 °F 22 °F (1976)
Degree Days  
Heating Degree Days 18    
Moisture  
Dew Point 25 °F    
Average Humidity 44    
Maximum Humidity 75    
Minimum Humidity 22    
Precipitation  
Precipitation 0.00 in - - ()
Sea Level Pressure  
Sea Level Pressure 29.91 in    
Wind  
Wind Speed 12 mph (South)    
Max Wind Speed 25 mph    
Max Gust Speed 33 mph    
Visibility 10 miles    
Events      
Averages and records for this station are not official NWS values.
T = Trace of Precipitation, MM = Missing Value Source: NWS Daily Summary

Daily Weather History Graph

Daily Weather History Graph

Search for Another Location

Airport or City:

Astronomy

Oct. 08, 2012 Rise Set
Actual Time 7:13 AM CDT 6:36 PM CDT
Civil Twilight 6:45 AM CDT 7:04 PM CDT
Nautical Twilight 6:12 AM CDT 7:37 PM CDT
Astronomical Twilight 5:39 AM CDT 8:09 PM CDT
Moon No Moon Rise 2:34 PM CDT (10/8)
Length of Visible Light 12h 19m
Length of Day
11h 22m
Last Quarter, 46% of the Moon is Illuminated
Oct 8
Last Quarter
Oct 15
New
Oct 21
First Quarter
Oct 29
Full
Nov 6
Last Quarter

Hourly Weather History & Observations

Time (CDT) Temp. Windchill Dew Point Humidity Pressure Visibility Wind Dir Wind Speed Gust Speed Precip Events Conditions
12:14 AM 32.0 °F 24.8 °F 15.8 °F 51% 30.04 in 10.0 mi South 8.1 mph - N/A   Clear
12:15 AM 32.0 °F 24.8 °F 17.6 °F 55% 30.04 in 10.0 mi South 8.1 mph - N/A   Clear
12:34 AM 33.8 °F 27.0 °F 15.8 °F 48% 30.03 in 10.0 mi South 8.1 mph - N/A   Clear
12:35 AM 32.0 °F 24.8 °F 17.6 °F 55% 30.03 in 10.0 mi South 8.1 mph - N/A   Clear
12:54 AM 32.0 °F 24.8 °F 17.6 °F 55% 30.03 in 10.0 mi South 8.1 mph - N/A   Clear
12:55 AM 32.0 °F 24.8 °F 17.6 °F 55% 30.03 in 10.0 mi South 8.1 mph - N/A   Clear
1:15 AM 32.0 °F 24.8 °F 17.6 °F 55% 30.03 in 10.0 mi South 8.1 mph - N/A   Clear
1:34 AM 32.0 °F 26.4 °F 17.6 °F 55% 30.03 in 10.0 mi South 5.8 mph - N/A   Clear
1:35 AM 32.0 °F 26.4 °F 17.6 °F 55% 30.03 in 10.0 mi South 5.8 mph - N/A   Clear
1:54 AM 30.2 °F 23.4 °F 17.6 °F 60% 30.02 in 10.0 mi SSE 6.9 mph - N/A   Clear
1:55 AM 32.0 °F 25.6 °F 19.4 °F 60% 30.02 in 10.0 mi SSE 6.9 mph - N/A   Clear
2:14 AM 32.0 °F 25.6 °F 17.6 °F 55% 30.02 in 10.0 mi South 6.9 mph - N/A   Clear
2:15 AM 32.0 °F 25.6 °F 19.4 °F 60% 30.02 in 10.0 mi South 6.9 mph - N/A   Clear
2:34 AM 32.0 °F 26.4 °F 19.4 °F 60% 30.02 in 10.0 mi South 5.8 mph - N/A   Clear
2:35 AM 32.0 °F 26.4 °F 19.4 °F 60% 30.02 in 10.0 mi South 5.8 mph - N/A   Clear
2:54 AM 32.0 °F 26.4 °F 19.4 °F 60% 30.01 in 10.0 mi South 5.8 mph - N/A   Clear
2:55 AM 32.0 °F 26.4 °F 19.4 °F 60% 30.01 in 10.0 mi South 5.8 mph - N/A   Clear
3:14 AM 30.2 °F 23.4 °F 19.4 °F 64% 30.01 in 10.0 mi SSE 6.9 mph - N/A   Clear
3:15 AM 32.0 °F 25.6 °F 19.4 °F 60% 30.01 in 10.0 mi SSE 6.9 mph - N/A   Clear
3:34 AM 30.2 °F 24.3 °F 19.4 °F 64% 30.00 in 10.0 mi South 5.8 mph - N/A   Clear
3:35 AM 32.0 °F 26.4 °F 21.2 °F 64% 30.00 in 10.0 mi South 5.8 mph - N/A   Clear
3:54 AM 32.0 °F 25.6 °F 19.4 °F 60% 29.99 in 10.0 mi South 6.9 mph - N/A   Clear
3:55 AM 32.0 °F 25.6 °F 21.2 °F 64% 29.99 in 10.0 mi South 6.9 mph - N/A   Clear
4:15 AM 32.0 °F 26.4 °F 21.2 °F 64% 29.99 in 10.0 mi SSE 5.8 mph - N/A   Clear
4:16 AM 32.0 °F 25.6 °F 19.4 °F 60% 29.99 in 10.0 mi SSE 6.9 mph - N/A   Clear
4:34 AM 32.0 °F 25.6 °F 21.2 °F 64% 29.99 in 10.0 mi South 6.9 mph - N/A   Clear
4:35 AM 32.0 °F 26.4 °F 21.2 °F 64% 29.99 in 10.0 mi South 5.8 mph - N/A   Clear
4:54 AM 32.0 °F 25.6 °F 21.2 °F 64% 29.99 in 10.0 mi SSE 6.9 mph - N/A   Clear
4:55 AM 32.0 °F 25.6 °F 21.2 °F 64% 29.99 in 10.0 mi SSE 6.9 mph - N/A   Clear
5:14 AM 32.0 °F 25.6 °F 21.2 °F 64% 29.97 in 10.0 mi SSE 6.9 mph - N/A   Clear
5:15 AM 32.0 °F 25.6 °F 21.2 °F 64% 29.97 in 10.0 mi SSE 6.9 mph - N/A   Clear
5:35 AM 32.0 °F 25.6 °F 21.2 °F 64% 29.97 in 10.0 mi SSE 6.9 mph - N/A   Clear
5:54 AM 32.0 °F 25.6 °F 21.2 °F 64% 29.97 in 10.0 mi SSE 6.9 mph - N/A   Clear
5:55 AM 32.0 °F 24.8 °F 23.0 °F 69% 29.97 in 10.0 mi SSE 8.1 mph - N/A   Clear
6:15 AM 32.0 °F 24.8 °F 23.0 °F 69% 29.97 in 10.0 mi South 8.1 mph - N/A   Clear
6:16 AM 32.0 °F 24.8 °F 21.2 °F 64% 29.97 in 10.0 mi South 8.1 mph - N/A   Clear
6:34 AM 32.0 °F 24.2 °F 23.0 °F 69% 29.97 in 10.0 mi South 9.2 mph - N/A   Clear
6:35 AM 32.0 °F 24.2 °F 23.0 °F 69% 29.97 in 10.0 mi South 9.2 mph - N/A   Clear
6:55 AM 32.0 °F 24.2 °F 23.0 °F 69% 29.96 in 10.0 mi South 9.2 mph - N/A   Clear
7:15 AM 32.0 °F 24.2 °F 24.8 °F 75% 29.96 in 10.0 mi South 9.2 mph - N/A   Clear
7:34 AM 33.8 °F 26.4 °F 24.8 °F 70% 29.96 in 10.0 mi South 9.2 mph - N/A   Clear
7:35 AM 33.8 °F 26.4 °F 24.8 °F 70% 29.96 in 10.0 mi South 9.2 mph - N/A   Clear
7:55 AM 33.8 °F 26.4 °F 26.6 °F 75% 29.96 in 10.0 mi South 9.2 mph - N/A   Clear
8:15 AM 35.6 °F 28.0 °F 26.6 °F 70% 29.97 in 10.0 mi South 10.4 mph - N/A   Clear
8:34 AM 39.2 °F 31.6 °F 26.6 °F 61% 29.96 in 10.0 mi South 12.7 mph 17.3 mph N/A   Clear
8:35 AM 37.4 °F 29.3 °F 28.4 °F 70% 29.96 in 10.0 mi South 12.7 mph 17.3 mph N/A   Clear
8:54 AM 41.0 °F 33.9 °F 26.6 °F 57% 29.95 in 10.0 mi South 12.7 mph 20.7 mph N/A   Clear
8:55 AM 41.0 °F 33.9 °F 28.4 °F 61% 29.95 in 10.0 mi South 12.7 mph 20.7 mph N/A   Clear
9:14 AM 44.6 °F 37.4 °F 28.4 °F 53% 29.95 in 10.0 mi South 16.1 mph - N/A   Clear
9:15 AM 42.8 °F 35.8 °F 28.4 °F 57% 29.95 in 10.0 mi South 13.8 mph 18.4 mph N/A   Clear
9:34 AM 46.4 °F 39.2 °F 28.4 °F 50% 29.95 in 10.0 mi South 18.4 mph 25.3 mph N/A   Clear
9:55 AM 46.4 °F 39.5 °F 28.4 °F 50% 29.95 in 10.0 mi SSW 17.3 mph 21.9 mph N/A   Clear
10:14 AM 48.2 °F - 28.4 °F 46% 29.94 in 10.0 mi SSW 13.8 mph 21.9 mph N/A   Clear
10:15 AM 48.2 °F - 28.4 °F 46% 29.94 in 10.0 mi SSW 13.8 mph 21.9 mph N/A   Clear
10:34 AM 51.8 °F - 28.4 °F 41% 29.93 in 10.0 mi South 17.3 mph 23.0 mph N/A   Clear
10:35 AM 50.0 °F - 28.4 °F 43% 29.93 in 10.0 mi South 17.3 mph 23.0 mph N/A   Clear
10:54 AM 53.6 °F - 28.4 °F 38% 29.92 in 10.0 mi South 17.3 mph 20.7 mph N/A   Clear
10:55 AM 51.8 °F - 28.4 °F 41% 29.92 in 10.0 mi South 17.3 mph 20.7 mph N/A   Clear
11:14 AM 55.4 °F - 26.6 °F 33% 29.92 in 10.0 mi SSW 17.3 mph 25.3 mph N/A   Clear
11:15 AM 53.6 °F - 28.4 °F 38% 29.92 in 10.0 mi SSW 17.3 mph 25.3 mph N/A   Clear
11:34 AM 55.4 °F - 28.4 °F 36% 29.91 in 10.0 mi South 17.3 mph 26.5 mph N/A   Clear
11:35 AM 55.4 °F - 28.4 °F 36% 29.91 in 10.0 mi South 17.3 mph 26.5 mph N/A   Clear
11:54 AM 59.0 °F - 26.6 °F 29% 29.91 in 10.0 mi SSW 17.3 mph 27.6 mph N/A   Clear
11:55 AM 59.0 °F - 26.6 °F 29% 29.91 in 10.0 mi SSW 17.3 mph 27.6 mph N/A   Clear
12:14 PM 59.0 °F - 24.8 °F 27% 29.90 in 10.0 mi SSW 18.4 mph 25.3 mph N/A   Clear
12:15 PM 59.0 °F - 26.6 °F 29% 29.90 in 10.0 mi SSW 18.4 mph 25.3 mph N/A   Clear
12:34 PM 57.2 °F - 26.6 °F 31% 29.89 in 10.0 mi SSW 19.6 mph 25.3 mph N/A   Clear
12:35 PM 57.2 °F - 26.6 °F 31% 29.89 in 10.0 mi South 19.6 mph 26.5 mph N/A   Clear
12:54 PM 59.0 °F - 26.6 °F 29% 29.89 in 10.0 mi South 17.3 mph 27.6 mph N/A   Clear
12:55 PM 59.0 °F - 26.6 °F 29% 29.89 in 10.0 mi SSW 18.4 mph 27.6 mph N/A   Clear
1:14 PM 60.8 °F - 24.8 °F 25% 29.88 in 10.0 mi SSW 20.7 mph 27.6 mph N/A   Clear
1:15 PM 59.0 °F - 26.6 °F 29% 29.88 in 10.0 mi SSW 19.6 mph 27.6 mph N/A   Clear
1:34 PM 60.8 °F - 26.6 °F 27% 29.86 in 10.0 mi SSW 20.7 mph 31.1 mph N/A   Clear
1:35 PM 60.8 °F - 26.6 °F 27% 29.86 in 10.0 mi SSW 20.7 mph 31.1 mph N/A   Clear
1:55 PM 62.6 °F - 24.8 °F 24% 29.86 in 10.0 mi SSW 24.2 mph 32.2 mph N/A   Clear
1:56 PM 62.6 °F - 24.8 °F 24% 29.86 in 10.0 mi South 25.3 mph 32.2 mph N/A   Clear
2:15 PM 62.6 °F - 23.0 °F 22% 29.85 in 10.0 mi SSW 24.2 mph 29.9 mph N/A   Clear
2:16 PM 64.4 °F - 24.8 °F 22% 29.85 in 10.0 mi South 24.2 mph 33.4 mph N/A   Clear
2:34 PM 64.4 °F - 24.8 °F 22% 29.85 in 10.0 mi SSW 25.3 mph 31.1 mph N/A   Clear
2:35 PM 62.6 °F - 24.8 °F 24% 29.85 in 10.0 mi SW 24.2 mph 31.1 mph N/A   Clear
3:14 PM 64.4 °F - 24.8 °F 22% 29.83 in 10.0 mi SSW 19.6 mph 32.2 mph N/A   Clear
3:15 PM 64.4 °F - 24.8 °F 22% 29.83 in 10.0 mi SSW 16.1 mph 32.2 mph N/A   Clear
3:34 PM 64.4 °F - 24.8 °F 22% 29.82 in 10.0 mi SSW 17.3 mph 32.2 mph N/A   Clear
3:35 PM 62.6 °F - 24.8 °F 24% 29.82 in 10.0 mi SSW 17.3 mph 32.2 mph N/A   Clear
3:54 PM 62.6 °F - 24.8 °F 24% 29.82 in 10.0 mi SSW 21.9 mph 29.9 mph N/A   Clear
3:55 PM 62.6 °F - 26.6 °F 26% 29.82 in 10.0 mi SSW 23.0 mph 29.9 mph N/A   Clear
4:14 PM 64.4 °F - 24.8 °F 22% 29.81 in 10.0 mi SSW 17.3 mph 28.8 mph N/A   Clear
4:15 PM 62.6 °F - 26.6 °F 26% 29.81 in 10.0 mi SSW 19.6 mph 27.6 mph N/A   Clear
4:34 PM 64.4 °F - 24.8 °F 22% 29.80 in 10.0 mi SSW 24.2 mph 33.4 mph N/A   Clear
4:35 PM 62.6 °F - 26.6 °F 26% 29.80 in 10.0 mi SSW 21.9 mph 33.4 mph N/A   Clear
4:55 PM 62.6 °F - 26.6 °F 26% 29.80 in 10.0 mi SSW 23.0 mph 29.9 mph N/A   Clear
4:56 PM 62.6 °F - 24.8 °F 24% 29.80 in 10.0 mi South 23.0 mph 29.9 mph N/A   Clear
5:14 PM 62.6 °F - 26.6 °F 26% 29.80 in 10.0 mi South 21.9 mph 29.9 mph N/A   Clear
5:15 PM 60.8 °F - 26.6 °F 27% 29.80 in 10.0 mi South 20.7 mph 29.9 mph N/A   Clear
5:34 PM 60.8 °F - 26.6 °F 27% 29.80 in 10.0 mi South 20.7 mph 27.6 mph N/A   Clear
5:35 PM 60.8 °F - 26.6 °F 27% 29.80 in 10.0 mi South 21.9 mph 27.6 mph N/A   Clear
5:54 PM 60.8 °F - 26.6 °F 27% 29.81 in 10.0 mi South 19.6 mph 25.3 mph N/A   Clear
5:55 PM 60.8 °F - 28.4 °F 29% 29.81 in 10.0 mi South 18.4 mph 25.3 mph N/A   Clear
6:14 PM 60.8 °F - 26.6 °F 27% 29.81 in 10.0 mi South 20.7 mph 25.3 mph N/A   Clear
6:15 PM 59.0 °F - 28.4 °F 31% 29.81 in 10.0 mi SSW 20.7 mph 25.3 mph N/A   Clear
6:34 PM 60.8 °F - 26.6 °F 27% 29.81 in 10.0 mi South 13.8 mph 23.0 mph N/A   Clear
6:35 PM 59.0 °F - 28.4 °F 31% 29.81 in 10.0 mi South 15.0 mph 23.0 mph N/A   Clear
6:54 PM 60.8 °F - 26.6 °F 27% 29.82 in 10.0 mi SSW 16.1 mph - N/A   Clear
6:55 PM 59.0 °F - 28.4 °F 31% 29.82 in 10.0 mi SSW 16.1 mph - N/A   Clear
7:15 PM 59.0 °F - 28.4 °F 31% 29.82 in 10.0 mi South 13.8 mph 21.9 mph N/A   Clear
7:34 PM 57.2 °F - 26.6 °F 31% 29.82 in 10.0 mi South 15.0 mph 25.3 mph N/A   Clear
7:35 PM 57.2 °F - 28.4 °F 33% 29.82 in 10.0 mi South 16.1 mph 25.3 mph N/A   Clear
8:15 PM 53.6 °F - 28.4 °F 38% 29.82 in 10.0 mi South 16.1 mph 24.2 mph N/A   Clear
8:16 PM 55.4 °F - 26.6 °F 33% 29.82 in 10.0 mi South 15.0 mph 24.2 mph N/A   Clear
8:35 PM 53.6 °F - 28.4 °F 38% 29.82 in 10.0 mi South 18.4 mph 24.2 mph N/A   Clear
9:14 PM 53.6 °F - 28.4 °F 38% 29.82 in 10.0 mi South 18.4 mph 24.2 mph N/A   Clear
9:15 PM 53.6 °F - 28.4 °F 38% 29.82 in 10.0 mi South 18.4 mph 24.2 mph N/A   Clear
9:34 PM 53.6 °F - 28.4 °F 38% 29.83 in 10.0 mi South 17.3 mph 24.2 mph N/A   Clear
9:35 PM 53.6 °F - 28.4 °F 38% 29.83 in 10.0 mi South 17.3 mph 24.2 mph N/A   Clear
9:55 PM 53.6 °F - 28.4 °F 38% 29.83 in 10.0 mi South 18.4 mph 26.5 mph N/A   Clear
9:56 PM 53.6 °F - 28.4 °F 38% 29.83 in 10.0 mi South 17.3 mph 26.5 mph N/A   Clear
10:15 PM 53.6 °F - 28.4 °F 38% 29.83 in 10.0 mi South 17.3 mph 24.2 mph N/A   Clear
10:35 PM 53.6 °F - 30.2 °F 41% 29.83 in 10.0 mi South 18.4 mph - N/A   Clear
10:54 PM 53.6 °F - 28.4 °F 38% 29.84 in 10.0 mi South 15.0 mph 21.9 mph N/A   Clear
10:55 PM 51.8 °F - 30.2 °F 44% 29.84 in 10.0 mi South 15.0 mph 21.9 mph N/A   Clear
11:14 PM 53.6 °F - 28.4 °F 38% 29.83 in 10.0 mi South 16.1 mph 23.0 mph N/A   Clear
11:15 PM 51.8 °F - 30.2 °F 44% 29.83 in 10.0 mi South 16.1 mph 23.0 mph N/A   Clear
11:35 PM 51.8 °F - 30.2 °F 44% 29.83 in 10.0 mi South 17.3 mph 23.0 mph N/A   Clear
11:55 PM 51.8 °F - 30.2 °F 44% 29.84 in 10.0 mi SSW 12.7 mph 17.3 mph N/A   Clear